• In Belarus
  • List of Countries
  • For 7 days
  • Water Temperature
  • Satellite Maps
  • Weather Map
  • Weather Widgets
  • user-avatar
    Login

    Hourly Weather Ulsan

    Today, 23 June, Saturday

    Time Temperature Precipitation Wind Pressure Humidity
    00:00 +21°C° 0 mm 2 mps 746 mmHg 58%
    01:00 +21°C° 0 mm 2 mps 746 mmHg 57%
    02:00 +21°C° 0 mm 2 mps 745 mmHg 57%
    03:00 +22°C° 0 mm 1 mps 745 mmHg 51%
    04:00 +22°C° 0 mm 1 mps 745 mmHg 54%
    05:00 +22°C° 0 mm 1 mps 745 mmHg 56%
    06:00 +22°C° 0 mm 1 mps 745 mmHg 59%
    07:00 +23°C° 0 mm 2 mps 745 mmHg 58%
    08:00 +24°C° 0 mm 2 mps 745 mmHg 58%
    09:00 +25°C° 0 mm 3 mps 744 mmHg 59%
    10:00 +27°C° 0 mm 3 mps 744 mmHg 54%
    11:00 +29°C° 0 mm 4 mps 744 mmHg 49%
    12:00 +30°C° 0 mm 4 mps 744 mmHg 44%
    13:00 +32°C° 0 mm 4 mps 744 mmHg 42%
    14:00 +32°C° 0 mm 4 mps 743 mmHg 40%
    15:00 +33°C° 0 mm 4 mps 743 mmHg 37%
    16:00 +32°C° 0 mm 5 mps 743 mmHg 42%
    17:00 +30°C° 0 mm 5 mps 743 mmHg 47%
    18:00 +29°C° 0 mm 5 mps 743 mmHg 52%
    19:00 +27°C° 0 mm 5 mps 743 mmHg 59%
    20:00 +25°C° 0 mm 4 mps 743 mmHg 67%
    21:00 +22°C° 0 mm 4 mps 744 mmHg 74%
    22:00 +21°C° 0 mm 4 mps 744 mmHg 77%
    23:00 +21°C° 0 mm 3 mps 744 mmHg 80%

    Tomorrow, 24 June, Sunday

    Time Temperature Precipitation Wind Pressure Humidity
    00:00 +20°C° 0 mm 3 mps 744 mmHg 83%
    01:00 +20°C° 0 mm 3 mps 744 mmHg 84%
    02:00 +19°C° 0 mm 3 mps 744 mmHg 85%
    03:00 +19°C° 0 mm 3 mps 744 mmHg 86%
    04:00 +19°C° 0 mm 3 mps 744 mmHg 86%
    05:00 +19°C° 0 mm 3 mps 744 mmHg 86%
    06:00 +19°C° 0 mm 3 mps 745 mmHg 86%
    07:00 +22°C° 0 mm 3 mps 745 mmHg 76%
    08:00 +26°C° 0 mm 3 mps 745 mmHg 67%
    09:00 +28°C° 0 mm 3 mps 745 mmHg 58%
    10:00 +30°C° 0 mm 3 mps 745 mmHg 51%
    11:00 +33°C° 0 mm 3 mps 745 mmHg 44%
    12:00 +35°C° 0 mm 4 mps 746 mmHg 37%
    13:00 +35°C° 0 mm 4 mps 746 mmHg 35%
    14:00 +36°C° 0 mm 4 mps 745 mmHg 33%
    15:00 +37°C° 0 mm 4 mps 745 mmHg 31%
    16:00 +36°C° 0 mm 4 mps 745 mmHg 36%
    17:00 +35°C° 0 mm 4 mps 746 mmHg 41%
    18:00 +34°C° 0 mm 4 mps 746 mmHg 46%
    19:00 +30°C° 0 mm 4 mps 746 mmHg 51%
    20:00 +28°C° 0 mm 4 mps 746 mmHg 57%
    21:00 +25°C° 0 mm 4 mps 746 mmHg 63%
    22:00 +25°C° 0 mm 4 mps 747 mmHg 67%
    23:00 +24°C° 0 mm 3 mps 747 mmHg 71%

    Day after tomorrow, 25 June, Monday

    Time Temperature Precipitation Wind Pressure Humidity
    00:00 +22°C° 0 mm 3 mps 747 mmHg 75%
    01:00 +22°C° 0 mm 3 mps 747 mmHg 77%
    02:00 +21°C° 0 mm 3 mps 747 mmHg 79%
    03:00 +21°C° 0 mm 3 mps 747 mmHg 81%
    04:00 +21°C° 0 mm 2 mps 747 mmHg 80%
    05:00 +21°C° 0 mm 2 mps 747 mmHg 80%
    06:00 +21°C° 0 mm 2 mps 747 mmHg 79%
    07:00 +25°C° 0 mm 2 mps 748 mmHg 69%
    08:00 +28°C° 0 mm 2 mps 748 mmHg 60%
    09:00 +30°C° 0 mm 2 mps 748 mmHg 50%
    10:00 +32°C° 0 mm 2 mps 748 mmHg 46%
    11:00 +35°C° 0 mm 3 mps 748 mmHg 42%
    12:00 +37°C° 0 mm 3 mps 748 mmHg 38%
    13:00 +36°C° 0 mm 3 mps 748 mmHg 38%
    14:00 +36°C° 0 mm 3 mps 748 mmHg 38%
    15:00 +36°C° 0 mm 4 mps 748 mmHg 38%
    16:00 +35°C° 0 mm 4 mps 748 mmHg 43%
    17:00 +33°C° 0 mm 3 mps 747 mmHg 49%
    18:00 +31°C° 0 mm 3 mps 747 mmHg 54%
    19:00 +29°C° 0 mm 3 mps 748 mmHg 56%
    20:00 +27°C° 0 mm 2 mps 748 mmHg 58%
    21:00 +25°C° 0 mm 2 mps 748 mmHg 60%
    22:00 +25°C° 0 mm 2 mps 748 mmHg 60%
    23:00 +24°C° 0 mm 2 mps 749 mmHg 61%

    26 June, Tuesday

    Time Temperature Precipitation Wind Pressure Humidity
    00:00 +23°C° 0 mm 2 mps 749 mmHg 61%
    01:00 +23°C° 0 mm 2 mps 748 mmHg 62%
    02:00 +24°C° 0 mm 2 mps 748 mmHg 62%
    03:00 +24°C° 0 mm 2 mps 748 mmHg 62%
    04:00 +24°C° 0 mm 2 mps 748 mmHg 67%
    05:00 +24°C° 0 mm 3 mps 748 mmHg 72%
    06:00 +24°C° 0 mm 3 mps 748 mmHg 76%
    07:00 +25°C° 0 mm 4 mps 748 mmHg 79%
    08:00 +26°C° 0 mm 5 mps 748 mmHg 81%
    09:00 +27°C° 0 mm 5 mps 748 mmHg 84%
    10:00 +28°C° 0.1 mm 6 mps 748 mmHg 84%
    11:00 +28°C° 0.1 mm 6 mps 748 mmHg 85%
    12:00 +28°C° 0.1 mm 6 mps 747 mmHg 85%
    13:00 +29°C° 0.1 mm 7 mps 747 mmHg 81%
    14:00 +29°C° 0.1 mm 7 mps 747 mmHg 78%
    15:00 +31°C° 0.1 mm 8 mps 746 mmHg 74%
    16:00 +29°C° 0.1 mm 8 mps 746 mmHg 76%
    17:00 +29°C° 0.1 mm 8 mps 746 mmHg 79%
    18:00 +28°C° 0.1 mm 8 mps 746 mmHg 82%
    19:00 +28°C° 0.1 mm 8 mps 746 mmHg 85%
    20:00 +27°C° 0.1 mm 8 mps 746 mmHg 88%
    21:00 +26°C° 0.1 mm 8 mps 746 mmHg 91%
    22:00 +26°C° 0.1 mm 9 mps 745 mmHg 92%
    23:00 +26°C° 0.1 mm 9 mps 745 mmHg 92%

    27 June, Wednesday

    Time Temperature Precipitation Wind Pressure Humidity
    00:00 +26°C° 0.1 mm 10 mps 745 mmHg 93%
    01:00 +26°C° 0.1 mm 10 mps 744 mmHg 93%
    02:00 +26°C° 0.1 mm 10 mps 744 mmHg 93%
    03:00 +26°C° 0.1 mm 11 mps 744 mmHg 93%
    04:00 +26°C° 0.2 mm 11 mps 744 mmHg 93%
    05:00 +24°C° 0.2 mm 11 mps 743 mmHg 94%
    06:00 +24°C° 0.2 mm 11 mps 743 mmHg 94%
    07:00 +24°C° 0.6 mm 11 mps 743 mmHg 95%
    08:00 +24°C° 0.6 mm 10 mps 743 mmHg 95%
    09:00 +24°C° 0.6 mm 10 mps 744 mmHg 96%
    10:00 +24°C° 1.4 mm 10 mps 744 mmHg 96%
    11:00 +24°C° 1.4 mm 10 mps 744 mmHg 96%
    12:00 +24°C° 1.4 mm 10 mps 744 mmHg 97%
    13:00 +26°C° 1.7 mm 10 mps 744 mmHg 96%
    14:00 +26°C° 1.7 mm 9 mps 743 mmHg 95%
    15:00 +26°C° 1.7 mm 9 mps 743 mmHg 94%
    16:00 +26°C° 0.6 mm 8 mps 743 mmHg 94%
    17:00 +26°C° 0.6 mm 8 mps 743 mmHg 94%
    18:00 +26°C° 0.6 mm 8 mps 744 mmHg 94%
    19:00 +26°C° 0.9 mm 7 mps 744 mmHg 95%
    20:00 +24°C° 0.9 mm 7 mps 744 mmHg 96%
    21:00 +24°C° 0.9 mm 7 mps 744 mmHg 97%
    22:00 +24°C° 1.2 mm 7 mps 744 mmHg 97%
    23:00 +24°C° 1.2 mm 7 mps 744 mmHg 97%

    28 June, Thursday

    Time Temperature Precipitation Wind Pressure Humidity
    00:00 +24°C° 1.2 mm 7 mps 744 mmHg 97%
    01:00 +24°C° 0.9 mm 7 mps 744 mmHg 97%
    02:00 +24°C° 0.9 mm 6 mps 743 mmHg 98%
    03:00 +24°C° 0.9 mm 6 mps 743 mmHg 98%
    04:00 +24°C° 0.3 mm 6 mps 743 mmHg 98%
    05:00 +24°C° 0.3 mm 6 mps 744 mmHg 98%
    06:00 +24°C° 0.3 mm 6 mps 744 mmHg 98%
    07:00 +24°C° 0.3 mm 6 mps 744 mmHg 95%
    08:00 +26°C° 0.3 mm 7 mps 744 mmHg 93%
    09:00 +27°C° 0.3 mm 7 mps 745 mmHg 90%
    10:00 +26°C° 1.1 mm 8 mps 745 mmHg 91%
    11:00 +26°C° 1.1 mm 8 mps 745 mmHg 92%
    12:00 +26°C° 1.1 mm 9 mps 745 mmHg 92%
    13:00 +26°C° 0.5 mm 8 mps 745 mmHg 92%
    14:00 +26°C° 0.5 mm 7 mps 745 mmHg 93%
    15:00 +26°C° 0.5 mm 6 mps 744 mmHg 93%
    16:00 +26°C° 0.2 mm 6 mps 744 mmHg 92%
    17:00 +26°C° 0.2 mm 6 mps 745 mmHg 92%
    18:00 +26°C° 0.2 mm 6 mps 745 mmHg 92%
    19:00 +26°C° 0.2 mm 6 mps 745 mmHg 93%
    20:00 +24°C° 0.2 mm 6 mps 745 mmHg 95%
    21:00 +24°C° 0.2 mm 6 mps 746 mmHg 96%
    22:00 +24°C° 0.3 mm 6 mps 746 mmHg 97%
    23:00 +24°C° 0.3 mm 6 mps 746 mmHg 97%
    Show more